Zurück zum Katalog

FREGAT R/B

AktivHEO
NORAD 37830·ROCKET BODY·🇷🇺 Russia

Gestartet Oct 2, 2011 von Plesetsk Cosmodrome

Loading…

Nächste Überflüge (nächste 24 Stunden)

TLE

AktuellSource: Space-Track

Epoche: Sep 13, 2026, 02:09 UTC

1 37830U 11055B   26256.08963664  .00000003  00000-0  00000-0 0  9999
2 37830  65.1965  76.5065 0080955  92.1346 267.5369  2.09557389114390

Verfolge FREGAT R/B in Echtzeit mit AllMySat

Download on the App Store